When you browse on this site, cookies collect data to enhance your experience and personalize the content and advertising you see.
Visit our Privacy Policy to learn more. By continuing to use the site, you agree to this use of cookies and data.

Previsão horária em Vejle

Hoje, 9 Julho, Quinta-feira

Tempo Temperatura Precipitação Vento Pressão Humidade
00:00 +8°C° 0 mm 3 m/s 753 mmHg 92%
01:00 +7°C° 0 mm 3 m/s 753 mmHg 92%
02:00 +7°C° 0 mm 3 m/s 753 mmHg 92%
03:00 +7°C° 0 mm 2 m/s 753 mmHg 93%
04:00 +7°C° 0 mm 2 m/s 753 mmHg 93%
05:00 +8°C° 0 mm 2 m/s 753 mmHg 89%
06:00 +10°C° 0 mm 2 m/s 752 mmHg 84%
07:00 +12°C° 0 mm 2 m/s 752 mmHg 80%
08:00 +13°C° 0 mm 2 m/s 752 mmHg 76%
09:00 +14°C° 0 mm 2 m/s 752 mmHg 72%
10:00 +14°C° 0 mm 2 m/s 752 mmHg 67%
11:00 +15°C° 0 mm 2 m/s 752 mmHg 67%
12:00 +15°C° 0 mm 2 m/s 752 mmHg 67%
13:00 +15°C° 0 mm 2 m/s 751 mmHg 67%
14:00 +15°C° 0.1 mm 2 m/s 751 mmHg 70%
15:00 +15°C° 0.1 mm 2 m/s 751 mmHg 72%
16:00 +15°C° 0.1 mm 2 m/s 751 mmHg 75%
17:00 +14°C° 0.1 mm 2 m/s 750 mmHg 78%
18:00 +14°C° 0.1 mm 1 m/s 750 mmHg 81%
19:00 +14°C° 0.1 mm 1 m/s 749 mmHg 85%
20:00 +13°C° 0 mm 2 m/s 750 mmHg 87%
21:00 +12°C° 0 mm 2 m/s 750 mmHg 89%
22:00 +10°C° 0 mm 2 m/s 750 mmHg 91%
23:00 +9°C° 0 mm 2 m/s 750 mmHg 92%

Amanhã, 10 Julho, Sexta-feira

Tempo Temperatura Precipitação Vento Pressão Humidade
00:00 +8°C° 0 mm 3 m/s 750 mmHg 92%
01:00 +8°C° 0 mm 3 m/s 749 mmHg 92%
02:00 +7°C° 0 mm 3 m/s 749 mmHg 92%
03:00 +7°C° 0 mm 3 m/s 749 mmHg 92%
04:00 +7°C° 0 mm 3 m/s 749 mmHg 92%
05:00 +8°C° 0 mm 3 m/s 749 mmHg 88%
06:00 +10°C° 0 mm 4 m/s 749 mmHg 85%
07:00 +11°C° 0 mm 4 m/s 749 mmHg 81%
08:00 +12°C° 0 mm 4 m/s 750 mmHg 77%
09:00 +13°C° 0 mm 4 m/s 750 mmHg 73%
10:00 +14°C° 0 mm 4 m/s 750 mmHg 69%
11:00 +14°C° 0 mm 5 m/s 750 mmHg 68%
12:00 +14°C° 0 mm 5 m/s 750 mmHg 68%
13:00 +15°C° 0 mm 5 m/s 750 mmHg 67%
14:00 +15°C° 0.1 mm 5 m/s 750 mmHg 67%
15:00 +15°C° 0.1 mm 6 m/s 750 mmHg 67%
16:00 +15°C° 0.1 mm 6 m/s 750 mmHg 67%
17:00 +14°C° 0 mm 6 m/s 751 mmHg 70%
18:00 +14°C° 0 mm 6 m/s 751 mmHg 73%
19:00 +13°C° 0 mm 5 m/s 751 mmHg 75%
20:00 +10°C° 0 mm 5 m/s 751 mmHg 81%
21:00 +9°C° 0 mm 5 m/s 751 mmHg 86%
22:00 +8°C° 0 mm 4 m/s 752 mmHg 91%
23:00 +8°C° 0 mm 4 m/s 752 mmHg 91%

Depois de amanhã, 11 Julho, Sábado

Tempo Temperatura Precipitação Vento Pressão Humidade
00:00 +8°C° 0 mm 5 m/s 752 mmHg 91%
01:00 +7°C° 0 mm 5 m/s 752 mmHg 92%
02:00 +8°C° 0 mm 5 m/s 753 mmHg 91%
03:00 +8°C° 0 mm 5 m/s 753 mmHg 91%
04:00 +8°C° 0 mm 5 m/s 753 mmHg 91%
05:00 +9°C° 0 mm 6 m/s 753 mmHg 85%
06:00 +10°C° 0 mm 6 m/s 754 mmHg 80%
07:00 +11°C° 0 mm 7 m/s 754 mmHg 75%
08:00 +12°C° 0.1 mm 7 m/s 754 mmHg 73%
09:00 +13°C° 0.1 mm 8 m/s 755 mmHg 71%
10:00 +13°C° 0.1 mm 8 m/s 756 mmHg 69%
11:00 +15°C° 0.1 mm 8 m/s 756 mmHg 66%
12:00 +15°C° 0.1 mm 8 m/s 756 mmHg 63%
13:00 +15°C° 0.1 mm 9 m/s 756 mmHg 60%
14:00 +15°C° 0.1 mm 8 m/s 757 mmHg 62%
15:00 +15°C° 0.1 mm 8 m/s 757 mmHg 63%
16:00 +15°C° 0.1 mm 8 m/s 757 mmHg 65%
17:00 +14°C° 0 mm 7 m/s 758 mmHg 68%
18:00 +12°C° 0 mm 7 m/s 758 mmHg 71%
19:00 +13°C° 0 mm 6 m/s 758 mmHg 74%
20:00 +10°C° 0 mm 6 m/s 758 mmHg 79%
21:00 +9°C° 0 mm 5 m/s 759 mmHg 84%
22:00 +8°C° 0 mm 5 m/s 759 mmHg 89%
23:00 +8°C° 0 mm 5 m/s 759 mmHg 89%

12 Julho, Domingo

Tempo Temperatura Precipitação Vento Pressão Humidade
00:00 +8°C° 0 mm 5 m/s 759 mmHg 90%
01:00 +8°C° 0 mm 5 m/s 759 mmHg 90%
02:00 +8°C° 0 mm 5 m/s 759 mmHg 90%
03:00 +8°C° 0 mm 5 m/s 759 mmHg 90%
04:00 +8°C° 0 mm 5 m/s 759 mmHg 90%
05:00 +9°C° 0 mm 5 m/s 759 mmHg 86%
06:00 +10°C° 0 mm 6 m/s 759 mmHg 82%
07:00 +11°C° 0 mm 6 m/s 759 mmHg 77%
08:00 +12°C° 0 mm 7 m/s 760 mmHg 75%
09:00 +14°C° 0 mm 7 m/s 760 mmHg 72%
10:00 +15°C° 0 mm 7 m/s 760 mmHg 69%
11:00 +15°C° 0.1 mm 7 m/s 760 mmHg 70%
12:00 +16°C° 0.1 mm 7 m/s 761 mmHg 71%
13:00 +16°C° 0.1 mm 7 m/s 761 mmHg 72%
14:00 +16°C° 0.1 mm 7 m/s 761 mmHg 72%
15:00 +16°C° 0.1 mm 7 m/s 761 mmHg 72%
16:00 +16°C° 0.1 mm 7 m/s 761 mmHg 71%
17:00 +15°C° 0 mm 7 m/s 761 mmHg 73%
18:00 +15°C° 0 mm 6 m/s 761 mmHg 75%
19:00 +14°C° 0 mm 6 m/s 760 mmHg 77%
20:00 +13°C° 0 mm 5 m/s 761 mmHg 82%
21:00 +10°C° 0 mm 5 m/s 761 mmHg 87%
22:00 +10°C° 0 mm 4 m/s 761 mmHg 93%
23:00 +10°C° 0 mm 4 m/s 760 mmHg 93%

13 Julho, Segunda-feira

Tempo Temperatura Precipitação Vento Pressão Humidade
00:00 +8°C° 0 mm 4 m/s 760 mmHg 94%
01:00 +8°C° 0 mm 4 m/s 760 mmHg 94%
02:00 +8°C° 0 mm 4 m/s 760 mmHg 94%
03:00 +8°C° 0 mm 4 m/s 760 mmHg 95%
04:00 +8°C° 0 mm 4 m/s 759 mmHg 95%
05:00 +10°C° 0 mm 4 m/s 759 mmHg 91%
06:00 +12°C° 0 mm 4 m/s 759 mmHg 86%
07:00 +13°C° 0 mm 4 m/s 759 mmHg 82%
08:00 +14°C° 0 mm 4 m/s 759 mmHg 77%
09:00 +15°C° 0 mm 4 m/s 759 mmHg 72%
10:00 +18°C° 0 mm 4 m/s 759 mmHg 67%
11:00 +18°C° 0 mm 4 m/s 759 mmHg 65%
12:00 +19°C° 0 mm 4 m/s 759 mmHg 64%
13:00 +19°C° 0 mm 4 m/s 759 mmHg 62%
14:00 +19°C° 0 mm 4 m/s 758 mmHg 62%
15:00 +19°C° 0 mm 4 m/s 758 mmHg 63%
16:00 +19°C° 0 mm 4 m/s 758 mmHg 63%
17:00 +18°C° 0 mm 4 m/s 757 mmHg 68%
18:00 +17°C° 0 mm 3 m/s 757 mmHg 72%
19:00 +17°C° 0 mm 3 m/s 757 mmHg 77%
20:00 +14°C° 0 mm 3 m/s 757 mmHg 82%
21:00 +13°C° 0 mm 2 m/s 757 mmHg 87%
22:00 +10°C° 0 mm 2 m/s 756 mmHg 92%
23:00 +10°C° 0 mm 2 m/s 756 mmHg 92%

14 Julho, Terça-feira

Tempo Temperatura Precipitação Vento Pressão Humidade
00:00 +11°C° 0 mm 1 m/s 756 mmHg 92%
01:00 +10°C° 0 mm 1 m/s 756 mmHg 92%
02:00 +10°C° 0 mm 1 m/s 756 mmHg 92%
03:00 +10°C° 0 mm 1 m/s 755 mmHg 92%
04:00 +10°C° 0 mm 1 m/s 755 mmHg 92%
05:00 +11°C° 0 mm 1 m/s 755 mmHg 89%
06:00 +13°C° 0 mm 1 m/s 755 mmHg 86%
07:00 +14°C° 0 mm 1 m/s 755 mmHg 83%
08:00 +15°C° 0 mm 1 m/s 755 mmHg 76%
09:00 +16°C° 0 mm 1 m/s 754 mmHg 70%
10:00 +17°C° 0 mm 2 m/s 754 mmHg 63%
11:00 +18°C° 0 mm 2 m/s 754 mmHg 61%
12:00 +19°C° 0 mm 2 m/s 754 mmHg 60%
13:00 +19°C° 0 mm 2 m/s 754 mmHg 58%
14:00 +19°C° 0.3 mm 2 m/s 753 mmHg 62%
15:00 +19°C° 0.3 mm 2 m/s 753 mmHg 66%
16:00 +19°C° 0.3 mm 2 m/s 753 mmHg 70%
17:00 +18°C° 0.2 mm 2 m/s 752 mmHg 75%
18:00 +18°C° 0.2 mm 1 m/s 752 mmHg 81%
19:00 +15°C° 0.2 mm 1 m/s 752 mmHg 87%
20:00 +15°C° 0 mm 1 m/s 752 mmHg 88%
21:00 +14°C° 0 mm 1 m/s 752 mmHg 89%
22:00 +13°C° 0 mm 1 m/s 752 mmHg 90%
23:00 +12°C° 0 mm 1 m/s 751 mmHg 91%
Mostrar mais